Tracking 23940 objects as of 1-Dec-2021
HD Live streaming from Space Station
objects crossing your sky now

PEGASUS DEB

Track PEGASUS DEB now!
10-day predictions


NORAD ID: 24340
Int'l Code: 1994-029NR
Perigee: 579.9 km
Apogee: 1,945.7 km
Inclination: 81.6 °
Period: 110.6 minutes
Semi major axis: 7633 km
RCS: 0.0401 m2 (small)
Launch date: May 19, 1994
Source: United States (US)
Launch site: AIR FORCE WESTERN TEST RANGE (AFWTR)

Note: This is SATELLITE DEBRIS
aabbcc
Your satellite tracking list
Your tracking list is empty




NASA's NSSDC Master Catalog

Two Line Element Set (TLE):
1 24340U 94029NR  21334.53192773 -.00000714  00000-0 -32524-3 0  9990
2 24340  81.5745 184.0839 0894607 208.2120 146.7667 13.01640670308834
Source of the keplerian elements: AFSPC